Location: Sungai Jaoh
(2.9167°N, 113.9167°E)
Time: 16:31:53
(UTC+00:00)

USA 276 - Pass Details

Date: 30 November 2020
Orbit: 380 x 394 km, 50.0° (Epoch: 07 January)

Event Time Altitude Azimuth Distance (km) Brightness Sun altitude
Exits shadow 21:19:20 27° 290° (WNW) 800 3.0 -13.6°
Maximum altitude 21:20:42 45° 233° (SW) 546 2.6 -13.3°
Drops below altitude 10° 21:23:46 10° 159° (SSE) 1,422 5.6 -12.6°
Sets 21:25:53 0° 152° (SSE) 2,275 6.8 -12.1°
